Ketchikan, AK

10:05 PM AKDT on September 22, 2018 (GMT -0800)
Ketchikan International

Weather History for PAKT - November, 2017

Change the Weather History Date:

Tuesday, November 14, 2017

  Actual Average Record
Temperature  
Mean Temperature 40 °F -  
Max Temperature 44 °F 45 °F 56 °F (1962)
Min Temperature 35 °F 34 °F 16 °F (1955)
Degree Days  
Heating Degree Days 26    
Moisture  
Dew Point 32 °F    
Average Humidity 73    
Maximum Humidity 93    
Minimum Humidity 61    
Precipitation  
Precipitation 0.00 in - - ()
Sea Level Pressure  
Sea Level Pressure 29.60 in    
Wind  
Wind Speed 3 mph (WNW)    
Max Wind Speed 14 mph    
Max Gust Speed 21 mph    
Visibility 10 miles    
Events Rain    
Averages and records for this station are not official NWS values.
T = Trace of Precipitation, MM = Missing Value Source: NWS Daily Summary

Daily Weather History Graph

Daily Weather History Graph

Search for Another Location

Airport or City:

Astronomy

Nov. 14, 2017 Rise Set
Actual Time 7:19 AM AKST 3:42 PM AKST
Civil Twilight 6:38 AM AKST 4:23 PM AKST
Nautical Twilight 5:53 AM AKST 5:08 PM AKST
Astronomical Twilight 5:10 AM AKST 5:51 PM AKST
Moon 2:37 AM AKST (11/14) 2:55 PM AKST (11/14)
Length of Visible Light 9h 45m
Length of Day
8h 23m
Waning Crescent, 12% of the Moon is Illuminated
Nov 14
Waning Crescent
Nov 18
New
Nov 26
First Quarter
Dec 3
Full
Dec 9
Last Quarter

Hourly Weather History & Observations

Time (AKST) Temp. Windchill Dew Point Humidity Pressure Visibility Wind Dir Wind Speed Gust Speed Precip Events Conditions
12:53 AM 37.9 °F - 34.0 °F 86% 29.54 in 10.0 mi Calm Calm - N/A   Overcast
1:53 AM 37.0 °F - 33.1 °F 86% 29.54 in 10.0 mi Calm Calm - N/A   Overcast
2:53 AM 37.9 °F - 33.1 °F 83% 29.55 in 10.0 mi Calm Calm - N/A   Overcast
3:53 AM 37.0 °F - 32.0 °F 82% 29.55 in 10.0 mi Calm Calm - N/A   Overcast
4:53 AM 37.0 °F - 32.0 °F 82% 29.55 in 10.0 mi Calm Calm - N/A   Overcast
5:53 AM 35.1 °F - 30.0 °F 82% 29.55 in 10.0 mi Calm Calm - N/A   Scattered Clouds
6:10 AM 37.0 °F 31.6 °F 28.0 °F 70% 29.55 in 10.0 mi NW 6.9 mph - N/A   Mostly Cloudy
6:53 AM 37.4 °F - 30.2 °F 75% 29.57 in 10.0 mi Calm Calm - N/A   Overcast
7:53 AM 42.8 °F 39.3 °F 30.2 °F 61% 29.60 in 10.0 mi South 5.8 mph - N/A Rain Light Rain
8:53 AM 39.2 °F 35.9 °F 37.4 °F 93% 29.62 in 10.0 mi WNW 4.6 mph - N/A   Overcast
9:53 AM 39.2 °F 37.0 °F 35.6 °F 87% 29.63 in 10.0 mi WNW 3.5 mph - N/A   Overcast
10:53 AM 42.8 °F - 35.6 °F 76% 29.65 in 10.0 mi Calm Calm - N/A   Overcast
11:19 AM 44.6 °F 41.4 °F 33.8 °F 66% 29.65 in 10.0 mi South 5.8 mph - N/A   Overcast
11:53 AM 44.6 °F 42.2 °F 33.8 °F 66% 29.65 in 10.0 mi Variable 4.6 mph - N/A   Mostly Cloudy
12:53 PM 44.6 °F - 33.8 °F 66% 29.65 in 10.0 mi Calm Calm - N/A   Mostly Cloudy
1:53 PM 44.6 °F 43.1 °F 35.6 °F 71% 29.65 in 10.0 mi WNW 3.5 mph - N/A   Mostly Cloudy
2:53 PM 44.6 °F 42.2 °F 33.8 °F 66% 29.65 in 10.0 mi NW 4.6 mph - N/A   Overcast
3:53 PM 42.1 °F 36.6 °F 32.0 °F 67% 29.64 in 10.0 mi WNW 9.2 mph - N/A   Mostly Cloudy
4:53 PM 43.0 °F 40.3 °F 32.0 °F 65% 29.64 in 10.0 mi WNW 4.6 mph - N/A   Overcast
5:53 PM 42.1 °F 39.2 °F 30.9 °F 65% 29.64 in 10.0 mi NW 4.6 mph - N/A   Overcast
6:53 PM 41.0 °F 36.4 °F 30.0 °F 65% 29.63 in 10.0 mi NW 6.9 mph - N/A   Mostly Cloudy
7:53 PM 39.0 °F 33.4 °F 30.0 °F 70% 29.63 in 10.0 mi NW 8.1 mph 17.3 mph N/A   Clear
8:53 PM 39.0 °F 32.3 °F 28.0 °F 65% 29.62 in 10.0 mi NW 10.4 mph - N/A   Clear
9:53 PM 37.9 °F 30.9 °F 27.0 °F 65% 29.60 in 10.0 mi NW 10.4 mph - N/A   Clear
10:53 PM 37.9 °F 29.6 °F 26.1 °F 62% 29.58 in 10.0 mi WNW 13.8 mph - N/A   Clear
11:53 PM 37.0 °F 28.9 °F 26.1 °F 65% 29.57 in 10.0 mi WNW 12.7 mph 20.7 mph N/A   Clear